EHI
7 7 6 4 3 1 0 0 0 0 0 0 0 0 0 0 0 0 0 0 0 0 0 0 0 0 0 0 0 0 0 0 0 0 0 0 0 0 0 0 0 0 0
7 7 6 4 3 2 2 1 0 0 0 0 0 0 0 0 0 0 0 0 0 0 0 0 0 0 0 0 0 0 0 0 0 0 0 0 0 0 0 0 0 0 0
7 7 6 4 3 4 4 2 1 0 0 0 0 0 0 0 0 0 0 0 0 0 0 0 0 0 0 0 0 0 0 0 0 0 0 0 0 0 0 0 0 0 0
9 8 7 6 4 4 5 3 1 0 0 0 0 0 0 0 0 0 0 0 0 0 0 0 0 0 0 0 0 0 0 0 0 0 0 0 0 0 0 0 0 0 0
10 9 9 7 6 5 5 4 2 1 1 0 0 0 0 0 0 0 0 0 0 0 0 0 0 0 0 0 0 0 0 0 0 0 0 0 0 0 0 0 0 0 0
10 9 9 8 7 7 7 5 3 3 2 1 0 0 0 0 0 0 0 0 0 0 0 0 0 0 0 0 0 0 0 0 0 0 0 0 0 0 0 0 0 0 0
9 9 8 8 8 7 7 4 3 3 3 1 0 0 0 0 0 0 0 0 0 0 0 0 0 0 0 0 0 0 0 0 0 0 0 0 0 0 0 0 0 0 0
7 7 8 8 7 7 5 3 2 3 3 2 1 0 0 0 0 0 0 0 0 0 0 0 0 0 0 0 0 0 0 0 0 0 0 0 0 0 0 0 0 0 0
6 7 7 7 7 6 3 1 1 2 3 2 1 0 0 0 0 0 0 0 0 0 0 0 0 0 0 0 0 0 0 0 0 0 0 0 0 0 0 0 0 0 0
9 8 6 6 7 5 2 0 0 1 2 2 1 0 0 0 0 0 0 0 0 0 0 0 0 0 0 0 0 0 0 0 0 0 0 0 0 0 0 0 0 0 0
9 8 7 6 5 3 1 0 0 0 1 1 0 0 0 0 0 0 0 0 0 0 0 0 0 0 0 0 0 0 0 0 0 0 0 0 0 0 0 0 0 0 0
7 7 6 5 3 1 0 0 0 0 0 0 0 0 0 0 0 0 0 0 0 0 0 0 0 0 0 0 0 0 0 0 0 0 0 0 0 0 0 0 0 0 0
6 5 4 3 1 0 0 0 0 0 0 0 0 0 0 0 0 0 0 0 0 0 0 0 0 0 0 0 0 0 0 0 0 0 0 0 0 0 0 0 0 0 0
4 3 2 1 0 0 0 0 0 0 0 0 0 0 0 0 0 0 0 0 0 0 0 0 0 0 0 0 0 0 0 0 0 0 0 0 0 0 0 0 0 0 0
2 1 1 0 0 0 0 0 0 0 0 0 0 0 0 0 0 0 0 0 0 0 0 0 0 0 0 0 0 0 0 0 0 0 0 0 0 0 0 0 0 0 0
1 0 0 0 0 0 0 0 0 0 0 0 0 0 0 0 0 0 0 0 0 0 0 0 0 0 0 0 0 0 0 0 0 0 0 0 0 0 0 0 0 0 0
0 0 0 0 0 0 0 0 0 0 0 0 0 0 0 0 0 0 0 0 0 0 0 0 0 0 0 0 0 0 0 0 0 0 0 0 0 0 0 0 0 0 0
0 0 0 0 0 0 0 0 0 0 0 0 0 0 0 0 0 0 0 0 0 0 0 0 0 0 0 0 0 0 0 0 0 0 0 0 0 0 0 0 0 0 0
0 0 0 0 0 0 0 0 0 0 0 0 0 0 0 0 0 0 0 0 0 0 0 0 0 0 0 0 0 0 0 0 0 0 0 0 0 0 0 0 0 0 0
0 0 0 0 0 0 0 0 0 0 0 0 0 0 0 0 0 0 0 0 0 0 0 0 0 0 0 0 0 0 0 0 0 0 0 0 0 0 0 0 0 0 0
0 0 0 0 0 0 0 0 0 0 0 0 0 0 0 0 0 0 0 0 0 0 0 0 0 0 0 0 0 0 0 0 0 0 0 0 0 0 0 0 0 0 0
0 0 0 0 0 0 0 0 0 0 0 0 0 0 0 0 0 0 0 0 0 0 0 0 0 0 0 0 0 0 0 0 0 0 0 0 0 0 0 0 0 0 0
0 0 0 0 0 0 0 0 0 0 0 0 0 0 0 0 0 0 0 0 0 0 0 0 0 0 0 0 0 0 0 0 0 0 0 0 0 0 0 0 0 0 0
0 0 0 0 0 0 0 0 0 0 0 0 0 0 0 0 0 0 0 0 0 0 0 0 0 0 0 0 0 0 0 0 0 0 0 0 0 0 0 0 0 0 0
0 0 0 0 0 0 0 0 0 0 0 0 0 0 0 0 0 0 0 0 0 0 0 0 0 0 0 0 0 0 0 0 0 0 0 0 0 0 0 0 0 0 0
0 0 0 0 0 0 0 0 0 0 0 0 0 0 0 0 0 0 0 0 0 0 0 0 0 0 0 0 0 0 0 0 0 0 0 0 0 0 0 0 0 0 0
Wind_Speed
7 6 7 6 6 6 6 6 5 4 5 6 5 5 5 4 4 4 3 2 2 1 1 2 1 1 1 2 2 2 1 2 1 2 2 2 3 3 2 2 2 2 3
7 7 7 6 6 6 6 6 5 5 5 5 5 4 4 4 4 4 3 3 3 2 2 2 2 2 3 2 2 2 2 1 1 1 2 2 2 3 3 3 3 3 3
8 8 7 7 7 7 6 6 6 6 5 5 5 5 4 4 4 3 3 4 4 3 3 3 2 3 3 3 3 3 2 2 2 1 1 2 2 3 3 3 3 3 4
8 8 8 8 8 7 6 6 6 6 6 6 5 5 4 4 4 4 5 6 6 6 6 5 5 4 3 3 3 3 3 3 3 2 2 2 2 3 3 3 3 4 4
8 8 8 7 7 7 6 6 6 6 7 6 6 6 5 5 4 5 6 6 7 7 6 6 6 8 8 5 4 3 3 3 3 2 2 2 3 3 3 3 3 4 3
8 7 7 7 7 7 7 7 7 8 8 8 8 7 7 5 6 9 8 6 6 7 6 5 7 8 9 10 11 9 7 4 3 2 2 2 2 2 2 3 2 3 4
8 7 7 8 8 8 8 8 9 9 9 9 8 9 8 7 11 12 12 8 7 7 6 5 6 7 8 6 8 11 11 12 9 3 2 2 2 2 2 3 2 2 3
8 8 7 8 8 8 9 9 9 9 10 9 9 8 8 9 13 14 14 10 9 8 7 7 6 6 7 6 6 7 6 6 6 5 2 3 3 3 2 2 2 3 4
8 8 8 9 10 10 10 11 10 11 11 9 8 9 10 9 12 13 12 8 8 8 7 6 6 6 9 9 7 6 6 6 7 10 9 8 8 9 5 3 4 3 3
8 8 8 9 10 11 11 11 10 11 11 11 10 9 10 9 12 13 11 7 7 5 5 5 7 6 7 8 5 5 5 5 6 7 8 9 8 9 11 5 2 2 3
10 10 10 10 11 11 11 10 11 12 12 11 11 9 9 10 12 13 10 5 5 4 3 2 3 6 7 7 5 3 3 3 4 5 5 5 5 5 6 5 3 2 2
12 12 11 10 10 11 11 10 11 12 13 11 10 9 7 7 9 11 13 10 7 5 3 2 2 5 7 7 5 6 7 6 4 4 4 4 4 4 5 5 5 4 3
14 13 12 12 11 10 11 11 10 9 9 8 8 7 5 5 6 11 11 11 10 5 2 4 6 8 7 6 9 10 7 5 4 4 3 3 3 4 4 4 5 5 6
15 13 12 12 12 10 8 7 7 7 8 7 7 6 5 4 4 4 5 5 7 6 4 6 9 11 8 7 7 6 5 3 3 2 2 3 3 4 4 3 4 4 4
15 13 12 12 11 11 10 8 7 5 6 8 6 6 6 4 3 4 4 3 3 3 4 5 5 5 5 5 4 4 4 4 4 3 3 3 3 4 4 4 3 3 4
13 12 10 9 9 9 11 10 15 12 13 13 10 8 5 6 6 7 7 7 8 8 7 5 4 4 4 3 3 3 3 3 3 3 3 3 4 4 4 4 4 4 5
13 11 9 9 8 8 8 10 9 9 12 11 10 10 8 7 8 9 10 11 10 10 7 4 3 3 2 2 2 2 3 3 3 3 3 4 4 5 5 5 6 5 6
11 12 10 8 7 7 7 7 7 7 5 3 4 5 6 7 8 10 10 9 7 6 3 3 2 2 2 2 2 2 2 3 3 3 3 4 4 5 6 6 6 7 7
9 7 8 8 7 7 6 6 5 6 5 3 2 3 5 7 8 9 8 5 3 2 2 2 1 1 1 1 1 1 2 2 3 3 3 4 5 5 6 6 7 9 8
8 12 10 7 7 7 6 6 5 5 4 3 2 2 2 4 4 3 3 3 2 2 1 1 1 1 0 0 1 1 1 2 3 3 4 5 5 5 6 8 7 7 7
6 9 12 9 6 6 6 6 6 5 4 3 2 3 6 4 3 3 2 2 1 1 1 1 1 0 0 0 0 1 1 2 3 4 4 5 5 6 6 6 7 7 8
6 6 6 6 6 6 6 6 6 5 5 5 3 3 7 5 3 2 2 1 1 1 1 1 1 1 1 1 1 1 1 3 4 4 5 5 5 6 6 6 7 7 8
6 7 6 6 6 8 7 5 5 5 5 4 4 3 3 3 3 2 1 1 0 0 0 1 1 0 1 1 1 1 2 3 4 4 5 6 6 6 6 7 9 9 9
7 7 7 6 5 5 5 5 5 5 5 4 4 3 3 3 2 2 1 1 0 1 1 1 1 2 3 2 2 2 2 3 4 4 5 6 7 7 7 7 8 9 9
6 6 6 5 5 5 5 5 5 5 5 4 4 3 3 3 2 2 1 1 1 1 1 1 2 2 4 4 3 3 4 5 5 5 4 4 6 7 7 8 8 8 9
5 6 5 5 5 5 5 5 5 5 4 3 3 3 3 3 3 3 2 2 2 2 3 2 3 4 5 4 4 4 4 5 6 6 4 4 5 6 7 6 9 8 9
Wind_Direction
166 167 162 160 152 145 147 152 152 150 153 159 161 159 156 153 149 142 151 145 141 132 107 104 73 60 54 39 54 61 69 126 188 287 297 325 2 355 346 330 306 285 278
171 166 165 162 150 147 149 150 146 144 147 148 147 146 148 144 142 145 153 132 124 119 95 84 58 70 55 40 48 43 39 56 139 287 322 340 357 354 351 353 347 338 310
169 166 166 162 156 155 153 148 143 139 135 131 128 127 123 115 111 121 123 108 99 91 85 83 62 73 62 52 51 42 30 36 52 69 326 333 341 1 358 353 354 352 338
166 166 166 167 162 155 148 141 136 131 126 120 113 110 106 98 94 95 98 95 90 81 76 74 65 67 69 61 55 40 37 35 33 38 5 349 343 343 13 354 344 346 335
162 165 168 162 152 144 139 133 126 120 116 111 105 95 90 92 96 107 105 104 100 90 78 72 69 69 65 61 64 50 50 46 34 29 13 3 355 359 356 341 338 326 321
158 162 155 148 143 139 136 128 119 110 101 96 93 91 81 80 90 99 104 102 101 99 91 78 71 55 54 55 58 57 54 52 42 35 15 2 337 330 329 340 342 352 323
152 151 148 144 138 134 130 120 116 110 105 98 92 88 83 74 83 92 95 95 94 91 87 78 70 55 45 46 50 49 43 43 46 53 23 336 312 305 323 327 328 311 279
148 148 143 137 131 126 122 117 113 108 103 99 93 89 83 73 81 88 90 87 85 82 81 80 75 51 41 48 52 46 35 24 24 32 6 306 306 299 281 278 282 301 293
143 142 138 134 129 126 122 120 116 109 103 97 93 88 83 71 74 83 89 89 86 78 77 76 76 62 46 53 56 43 25 6 9 15 16 21 20 21 21 20 3 3 326
135 128 123 122 122 122 121 117 113 109 107 101 90 82 82 75 71 79 86 95 94 86 69 58 59 57 48 56 61 50 26 351 353 3 13 15 19 21 26 33 14 353 324
117 113 110 109 110 114 113 114 115 113 108 101 94 82 75 71 66 70 78 89 100 94 74 41 20 34 46 53 61 61 26 8 9 15 15 10 8 8 6 4 6 8 332
108 104 102 102 105 107 109 109 112 115 111 106 98 83 66 58 59 64 68 74 83 88 66 19 7 35 52 55 57 50 42 43 34 27 20 6 360 353 344 342 343 338 313
103 100 98 94 91 95 102 108 109 110 111 108 102 94 76 55 48 55 61 62 61 65 45 44 56 58 54 47 46 47 45 43 36 29 11 345 326 323 330 333 334 335 327
105 101 98 95 88 79 79 88 100 107 112 111 109 104 90 66 48 39 42 45 42 43 36 43 53 57 58 51 43 40 39 40 41 19 337 320 325 337 338 333 327 330 328
103 101 96 92 93 86 75 65 80 80 115 122 120 122 115 94 60 69 64 44 41 50 58 50 47 45 44 38 34 28 21 18 16 355 347 340 336 336 326 326 325 328 322
107 105 104 103 100 100 97 80 57 73 87 97 109 112 96 105 95 67 57 62 68 78 77 63 54 51 52 43 34 16 5 360 350 346 346 342 335 328 324 324 323 318 312
112 113 111 111 112 110 109 110 99 66 66 79 92 98 100 96 76 63 67 76 73 77 74 67 60 51 45 38 30 18 355 342 347 355 354 346 339 332 328 324 323 319 314
111 117 119 120 121 119 117 117 119 121 108 68 56 78 85 79 70 68 72 74 56 51 68 75 64 52 50 37 21 11 358 353 356 351 343 335 331 327 323 319 317 315 314
111 118 121 124 126 125 124 121 117 116 113 104 64 43 59 71 69 68 74 82 87 69 62 66 69 71 60 34 12 3 0 350 340 334 328 324 321 320 315 312 312 313 312
106 114 117 118 119 119 121 122 121 121 118 109 98 92 75 77 71 57 63 82 92 93 84 80 71 92 87 6 347 346 346 337 331 323 316 314 312 310 307 308 309 310 308
105 111 112 111 115 120 123 126 127 126 125 121 119 123 125 110 109 103 95 91 108 128 134 136 161 173 184 299 305 321 326 315 310 307 306 305 306 307 304 302 302 302 303
106 105 107 111 112 113 119 123 125 125 126 124 117 103 109 106 110 112 111 117 146 166 175 162 174 206 208 200 197 234 298 300 302 304 303 302 303 304 304 304 305 306 306
108 108 105 105 108 113 113 115 120 124 126 130 129 119 113 117 123 127 129 136 140 349 4 118 142 200 230 215 206 206 250 275 280 286 296 301 305 304 303 302 303 306 307
110 113 113 112 110 112 117 119 122 126 128 128 128 129 134 137 140 147 157 168 213 274 267 204 191 197 207 227 238 244 254 267 276 278 284 288 294 297 299 300 300 301 303
112 115 118 119 118 119 118 119 122 126 129 133 135 136 141 146 156 171 189 211 222 239 244 223 217 218 227 234 240 251 270 286 290 290 283 281 286 292 297 299 302 306 307
117 117 117 117 119 123 124 127 131 136 139 144 147 152 159 167 181 196 210 220 229 239 244 244 240 236 233 236 243 251 271 290 299 304 295 283 291 298 307 306 309 312 311